Location: *
(38.4303°S, 157.0822°W)
Time: 21:10:27
(UTC+00:00)

USA 234 - Pass Details

Date: 21 May 2024
Orbit: 1100 x 1107 km, 123.0° (Epoch: 05 June)

Event Time Altitude Azimuth Distance (km) Brightness Sun altitude
Rises 16:09:03 0° 138° (SE) 3,957 6.6 -15.5°
Reaches altitude 10° 16:11:34 10° 140° (SE) 2,995 5.9 -15.0°
Maximum altitude 16:18:05 62° 219° (SW) 1,243 3.3 -13.8°
Drops below altitude 10° 16:24:33 10° 297° (WNW) 2,973 5.1 -12.6°
Enters shadow 16:26:45 - 300° (WNW) 3,812 5.7 -12.2°
